TimeEST,TemperatureF,Dew PointF,Humidity,Sea Level PressureIn,VisibilityMPH,Wind Direction,Wind SpeedMPH,Gust SpeedMPH,PrecipitationIn,Events,Conditions,WindDirDegrees,DateUTC
12:51 AM,28.9,21.9,75,30.29,10.0,SSW,5.8,-,N/A,,Clear,210,2012-11-29 05:51:00
1:51 AM,28.4,21.2,74,30.30,10.0,SW,5.8,-,N/A,,Clear,220,2012-11-29 06:51:00
2:51 AM,32.0,21.2,64,30.31,10.0,WSW,8.1,-,N/A,,Clear,250,2012-11-29 07:51:00
3:51 AM,32.0,21.0,64,30.30,10.0,WSW,6.9,-,N/A,,Partly Cloudy,250,2012-11-29 08:51:00
4:51 AM,32.0,21.9,66,30.31,10.0,WSW,6.9,-,N/A,,Mostly Cloudy,240,2012-11-29 09:51:00
5:51 AM,30.9,21.0,67,30.32,10.0,WSW,8.1,-,N/A,,Mostly Cloudy,240,2012-11-29 10:51:00
6:51 AM,30.9,21.0,67,30.33,10.0,WSW,6.9,-,N/A,,Scattered Clouds,250,2012-11-29 11:51:00
7:51 AM,33.1,21.9,64,30.35,10.0,West,6.9,-,N/A,,Mostly Cloudy,260,2012-11-29 12:51:00
8:51 AM,36.0,23.0,59,30.37,8.0,WSW,8.1,-,N/A,,Mostly Cloudy,240,2012-11-29 13:51:00
9:51 AM,37.9,23.0,55,30.38,10.0,West,15.0,-,N/A,,Overcast,270,2012-11-29 14:51:00
10:51 AM,41.0,24.1,51,30.36,10.0,West,12.7,-,N/A,,Mostly Cloudy,260,2012-11-29 15:51:00
11:51 AM,43.0,23.0,45,30.34,10.0,WSW,15.0,-,N/A,,Mostly Cloudy,250,2012-11-29 16:51:00
12:51 PM,44.1,24.1,45,30.32,10.0,WSW,13.8,-,N/A,,Mostly Cloudy,250,2012-11-29 17:51:00
1:51 PM,44.1,24.1,45,30.30,10.0,WSW,12.7,20.7,N/A,,Scattered Clouds,250,2012-11-29 18:51:00
2:51 PM,44.1,24.1,45,30.28,10.0,WSW,12.7,-,N/A,,Partly Cloudy,240,2012-11-29 19:51:00
3:51 PM,43.0,24.1,47,30.30,10.0,WSW,18.4,-,N/A,,Clear,250,2012-11-29 20:51:00
4:51 PM,41.0,25.0,53,30.30,9.0,SW,13.8,-,N/A,,Partly Cloudy,230,2012-11-29 21:51:00
5:51 PM,39.2,24.8,56,30.31,10.0,WSW,10.4,-,N/A,,Partly Cloudy,240,2012-11-29 22:51:00
6:51 PM,39.9,25.0,55,30.32,10.0,SW,10.4,-,N/A,,Clear,230,2012-11-29 23:51:00
7:51 PM,39.0,25.0,57,30.32,10.0,SW,12.7,-,N/A,,Clear,230,2012-11-30 00:51:00
8:51 PM,37.9,25.0,60,30.33,10.0,WSW,10.4,-,N/A,,Clear,240,2012-11-30 01:51:00
9:51 PM,39.9,25.0,55,30.33,10.0,WSW,12.7,-,N/A,,Clear,240,2012-11-30 02:51:00
10:51 PM,37.4,24.8,60,30.32,10.0,WSW,10.4,-,N/A,,Clear,250,2012-11-30 03:51:00
11:51 PM,37.9,24.1,57,30.33,10.0,West,9.2,-,N/A,,Clear,260,2012-11-30 04:51:00